Location: Ch�teau-Arnoux
(44.0814°N, 6.0027°E)
Time: 02:30:07
(UTC+00:00)

Tsikada Rocket - Pass Details

Date: 15 November 2019
Orbit: 958 x 1009 km, 82.9° (Epoch: 07 December)

Event Time Altitude Azimuth Distance (km) Brightness Sun altitude
Rises 05:26:50 0° 352° (N) 3,748 6.8 -11.6°
Reaches altitude 10° 05:29:23 10° 353° (N) 2,790 6.2 -11.1°
Maximum altitude 05:35:50 84° 81° (E) 1,011 4.2 -10.0°
Drops below altitude 10° 05:42:09 10° 171° (S) 2,744 6.7 -8.9°
Sets 05:44:39 0° 172° (S) 3,681 7.4 -8.5°
